HJS-7D

Satellite information

Favourite Embed

Satellite Type and Status

PAYLOADIN ORBIT

Key statistics

Satellite HJS-7D at a glance.

Uptime

28

Days in orbit

Revolutions

≈ 14.2

Per day

Orbit

LEO

Low Earth Orbit

Inclination

50.0

Latest

Satellite identification and parameters

Extended collection of information and parameters for HJS-7D.

Object identification

Identified? True

Debris? False

Object name: HJS-7D

International designator: 2025-209D

Object number (NORAD): 65620

Object ID (CCSDS): 65620

Country: PEOPLES REPUBLIC OF CHINA (PRC)

Current information (Y/N): Y

RCS size: LARGE

Orbital parameters

Period: 101.072 minutes

Inclination: 49.9998 deg

SMA: 7187.553 km

Apoapsis: 810.194 km

Periapsis: 808.642 km

RAAN: 221.2295 deg

Eccentricy: 0.00010798

Argument of periapsis: 286.5423 deg

Mean anomaly: 73.5371 deg

Mean motion: 14.24725447 rev/day

Mean motion (dot): 0.00000029 rev/day2

B* drag term: 0.000080645967 1/REarth

Two-line elements (TLE)

Creation date: Oct. 14, 2025, 2:50 a.m.

Reference frame: TEME

Reference center: EARTH

Epoch: Oct. 14, 2025, 12:14 a.m. UTC

TLE line 0: 0 HJS-7D

TLE line 1: 1 65620U 25209D 25287.01016878 .00000029 00000-0 80646-4 0 9991

TLE line 2: 2 65620 49.9998 221.2295 0001080 286.5423 73.5371 14.24725447 3976

Live tracking on map

Real-time ground track for satellite HJS-7D.

In-orbit conjunctions

There are no conjunctions computed for HJS-7D, at the moment. Check back to stay up to date, as we update our databases every day.

Go to all conjunctions

Associated space launch

Officially described as "Satellite-Internet Technology Demonstration Satellite(s)". Probably test satellites for the Chinese state-owned LEO communication satellite constellation SatNet.

HJS-7D was lifted into orbit during the mission ‘Long March 2C/YZ-1S | SatNet test satellites’, on board a Long March 2C/YZ-1S space rocket.

The launch took place on Sept. 16, 2025, 1:06 a.m. from Launch Area 4 (SLS-2 / 603).

For more information about the launch, click the button.

Launch to space Long March 2C/YZ-1S | SatNet test satellites
Long March 2C/YZ-1S | SatNet test satellites

Agency: N/A

Status: Launch Successful

Launch date: Sept. 16, 2025, 1:06 a.m. UTC

Rocket: Long March 2C/YZ-1S

Launch pad: Launch Area 4 (SLS-2 / 603)

Location: Jiuquan Satellite Launch Center, People's Republic of China

...

Latest news about this satellite

News about space launch
China boosts broadband, IoT and weather satellite fleets with flurry of launches

A flurry of launch activity has seen China add to an Internet of Things constellation, loft new broadband satellites and boost its weather satellite fleet. The post China boosts broadband, IoT and weather satellite fleets with flurry of launches appeared...

News about space launch
Launch Roundup: Starlink, NRO, and New Shepard missions scheduled

Another busy week of launches has arrived, with SpaceX dominating the launch manifest with four… The post Launch Roundup: Starlink, NRO, and New Shepard missions scheduled appeared first on NASASpaceFlight.com.


Newsletter sign-up

Weekly statistics, charts and insights to help you stay on top of the space industry.